1535302800.8,31381,19.25,73680.8,4.95,4.23,4.05,0,*79
1535302802.01,31382,19.19,73678.0,4.95,4.23,4.05,0,*7A
1535302803.22,31383,19.25,73680.3,4.97,4.11,3.89,0,*7B
1535302804.45,31384,19.25,73682.5,4.97,3.89,3.71,0,*7D
1535302805.68,31385,19.25,73680.8,4.93,3.75,3.55,0,*7D
1535302806.89,31386,19.25,73682.3,4.95,3.89,3.79,0,*75
1535302808.1,31387,19.25,73680.3,4.95,3.93,3.79,0,*7F
1535302809.33,31388,19.25,73682.5,4.95,4.01,3.71,0,*74
1535302810.56,31389,19.19,73680.0,4.93,3.79,3.55,0,*7D
1535302811.77,31390,19.25,73686.0,4.95,3.89,3.79,0,*72
1535302812.98,31391,19.25,73684.5,4.95,3.81,3.67,0,*74
1535302814.18,31392,19.25,73680.3,4.93,3.63,3.55,0,*7C
1535302815.36,31393,19.19,73682.0,4.95,3.59,3.55,0,*72
1535302816.59,31394,19.25,73680.5,4.93,3.67,3.63,0,*7B
1535302817.81,31395,19.25,73680.0,4.95,3.89,3.71,0,*7F
1535302819.04,31396,19.25,73680.5,4.93,3.85,3.67,0,*71
1535302820.27,31397,19.19,73680.0,4.93,3.85,3.75,0,*73
1535302821.5,31398,19.25,73682.0,4.93,3.97,3.85,0,*70
1535302822.72,31399,19.25,73680.3,4.93,3.97,3.85,0,*71
1535302823.96,31400,19.25,73682.8,4.93,3.89,3.79,0,*7A
1535302825.19,31401,19.25,73682.5,4.93,3.85,3.67,0,*78
1535302826.43,31402,19.19,73680.8,4.93,3.89,3.75,0,*74
1535302827.63,31403,19.25,73680.0,4.95,4.01,3.81,0,*7F
1535302828.85,31404,19.25,73682.0,4.93,4.07,3.89,0,*70
1535302830.04,31405,19.19,73682.3,4.95,4.07,3.89,0,*77
1535302831.27,31406,19.25,73684.5,4.93,4.01,3.89,0,*74
1535302832.5,31407,19.25,73682.0,4.93,4.07,3.97,0,*7C
1535302833.74,31408,19.25,73680.3,4.93,4.07,3.97,0,*73
1535302834.97,31409,19.25,73686.0,4.93,4.01,3.85,0,*77
1535302836.19,31410,19.19,73680.0,4.93,3.97,3.85,0,*77
1535302837.45,31411,19.25,73682.8,4.93,4.01,3.97,0,*7D
1535302838.71,31412,19.25,73680.5,4.93,3.79,3.67,0,*79
1535302839.94,31413,19.25,73686.0,4.93,3.89,3.79,0,*78
1535302841.14,31414,19.25,73682.3,4.95,3.81,3.79,0,*71
1535302842.37,31415,19.25,73682.0,4.93,3.97,3.85,0,*72
1535302843.61,31416,19.25,73682.8,4.93,4.01,3.89,0,*75
1535302844.84,31417,19.25,73680.8,4.93,4.11,4.01,0,*72
1535302846.07,31418,19.25,73680.3,4.93,4.19,4.01,0,*75
1535302847.28,31419,19.25,73684.0,4.93,4.19,4.07,0,*72
1535302848.51,31420,19.25,73680.8,4.93,3.85,3.67,0,*7B
1535302849.73,31421,19.25,73680.3,4.91,3.85,3.67,0,*78
1535302850.96,31422,19.19,73680.3,4.91,3.89,3.75,0,*74
1535302852.19,31423,19.19,73682.0,4.91,3.85,3.75,0,*79
1535302853.38,31424,19.25,73682.0,4.89,3.63,3.53,0,*7B
1535302854.6,31425,19.25,73682.5,4.91,3.55,3.45,0,*71
1535302855.83,31426,19.25,73680.3,4.91,3.75,3.63,0,*74
1535302857.06,31427,19.25,73680.5,4.91,3.89,3.75,0,*71
1535302858.26,31428,19.25,73680.3,4.89,3.85,3.75,0,*7B
1535302859.43,31429,19.25,73682.5,4.89,3.85,3.81,0,*71
1535302860.63,31430,19.25,73686.8,4.89,3.97,3.81,0,*7A
1535302861.86,31431,19.25,73680.5,4.91,4.01,3.89,0,*72
1535302863.06,31432,19.25,73682.8,4.89,3.85,3.75,0,*70
1535302864.28,31433,19.25,73680.5,4.91,3.85,3.75,0,*78
1535302865.48,31434,19.25,73682.8,4.89,3.81,3.71,0,*76
1535302866.65,31435,19.19,73680.3,4.89,3.81,3.63,0,*74
1535302867.85,31436,19.25,73680.3,4.89,3.85,3.71,0,*70
1535302869.04,31437,19.25,73684.3,4.89,3.63,3.53,0,*79
1535302870.27,31438,19.25,73680.0,4.89,3.53,3.41,0,*76
1535302871.49,31439,19.25,73682.5,4.89,3.53,3.49,0,*7F
1535302872.68,31440,19.25,73680.3,4.89,3.59,3.53,0,*70
1535302873.88,31441,19.25,73682.0,4.89,3.71,3.59,0,*71
1535302875.05,31442,19.19,73682.5,4.89,3.63,3.59,0,*71
1535302876.3,31443,19.25,73682.0,4.87,3.49,3.45,0,*7B
1535302877.5,31444,19.25,73682.8,4.85,3.55,3.45,0,*73
1535302878.73,31445,19.25,73680.0,4.87,3.71,3.55,0,*77
1535302879.96,31446,19.25,73684.8,4.87,3.67,3.55,0,*73
1535302881.19,31447,19.25,73684.8,4.85,3.67,3.49,0,*7D
1535302882.42,31448,19.25,73682.5,4.87,3.59,3.49,0,*7D
1535302883.59,31449,19.25,73686.0,4.85,3.59,3.55,0,*73
1535302884.79,31450,19.25,73682.8,4.85,3.55,3.49,0,*7A
1535302885.99,31451,19.25,73682.3,4.85,3.55,3.49,0,*7B
1535302887.19,31452,19.19,73682.8,4.81,3.55,3.45,0,*70
1535302888.39,31453,19.25,73684.3,4.81,3.67,3.63,0,*74
1535302889.6,31454,19.25,73682.0,4.81,3.85,3.75,0,*78
1535302890.8,31455,19.25,73684.5,4.81,3.89,3.75,0,*75
1535302892.0,31456,19.25,73684.3,4.81,3.97,3.85,0,*76
1535302893.2,31457,19.19,73682.5,4.81,3.97,3.89,0,*7B
1535302894.4,31458,19.25,73686.0,4.85,3.81,3.79,0,*78
1535302895.6,31459,19.25,73686.8,4.81,3.85,3.75,0,*75
1535302896.81,31460,19.25,73684.5,4.81,3.85,3.75,0,*7F
1535302898.01,31461,19.25,73684.3,4.81,3.85,3.67,0,*7D
1535302899.21,31462,19.25,73682.3,4.81,3.85,3.67,0,*7E
1535302900.44,31463,19.25,73686.0,4.81,3.75,3.75,0,*73
1535302901.67,31464,19.25,73682.5,4.81,3.79,3.75,0,*78
1535302902.87,31465,19.25,73686.0,4.81,3.85,3.79,0,*76
1535302904.07,31466,19.25,73686.3,4.81,3.79,3.85,0,*75
1535302905.27,31467,19.19,73680.0,4.81,3.85,3.75,0,*78
1535302906.48,31468,19.19,73682.0,4.81,3.89,3.75,0,*7B
1535302907.68,31469,19.25,73682.5,4.81,3.85,3.79,0,*7A
1535302908.88,31470,19.25,73684.3,4.81,3.67,3.55,0,*70
1535302910.08,31471,19.25,73684.3,4.81,3.55,3.53,0,*76
1535302911.28,31472,19.25,73684.0,4.81,3.55,3.45,0,*72
1535302912.51,31473,19.25,73686.0,4.81,3.45,3.41,0,*76
1535302913.71,31474,19.25,73680.8,4.81,3.41,3.29,0,*7B
1535302914.92,31475,19.25,73686.8,4.81,3.33,3.29,0,*7F
1535302916.14,31476,19.25,73682.5,4.79,3.29,3.19,0,*73
1535302917.37,31477,19.25,73682.8,4.79,3.29,3.15,0,*7E
1535302918.62,31478,19.19,73682.5,4.79,3.33,3.19,0,*76
1535302919.83,31479,19.19,73682.8,4.77,3.37,3.25,0,*72
1535302921.05,31480,19.19,73678.5,4.75,3.25,3.19,0,*7A
1535302922.27,31481,19.25,73684.8,4.75,3.25,3.23,0,*72
1535302923.5,31482,19.25,73684.5,4.77,3.37,3.37,0,*75
1535302924.73,31483,19.25,73684.3,4.75,3.55,3.37,0,*72
1535302925.98,31484,19.25,73686.0,4.75,3.49,3.37,0,*78
1535302927.2,31485,19.25,73680.5,4.75,3.25,3.11,0,*77
1535302928.43,31486,19.25,73682.0,4.75,3.33,3.25,0,*74
1535302929.64,31487,19.25,73682.3,4.77,3.63,3.49,0,*78
1535302930.86,31488,19.25,73680.8,4.75,3.59,3.45,0,*70
1535302932.09,31489,19.19,73680.3,4.75,3.59,3.45,0,*71
1535302933.32,31490,19.25,73682.8,4.75,3.59,3.45,0,*79
1535302934.53,31491,19.25,73686.8,4.77,3.41,3.29,0,*79
1535302935.73,31492,19.25,73686.0,4.73,3.25,3.23,0,*76
1535302936.95,31493,19.25,73684.5,4.73,3.49,3.37,0,*78
1535302938.18,31494,19.25,73686.3,4.73,3.37,3.23,0,*73
1535302939.4,31495,19.25,73684.0,4.73,3.45,3.33,0,*76
1535302940.63,31496,19.19,73682.0,4.73,3.45,3.33,0,*75
1535302941.83,31497,19.19,73680.8,4.73,3.19,2.99,0,*7C
1535302943.05,31498,19.25,73686.8,4.73,3.33,3.19,0,*72
1535302944.28,31499,19.25,73684.3,4.73,3.37,3.33,0,*7F
1535302945.5,31500,19.19,73682.0,4.73,3.19,3.11,0,*72
1535302946.73,31501,19.19,73680.3,4.73,3.23,3.11,0,*7A
1535302947.93,31502,19.25,73682.3,4.73,3.25,3.11,0,*7F
1535302949.13,31503,19.25,73680.5,4.73,3.45,3.25,0,*7F
1535302950.36,31504,19.25,73682.5,4.69,3.49,3.33,0,*78
1535302951.58,31505,19.25,73682.3,4.69,3.53,3.33,0,*72
1535302952.81,31506,19.19,73680.0,4.69,3.53,3.41,0,*74
1535302954.04,31507,19.25,73680.5,4.69,3.45,3.33,0,*77
1535302955.26,31508,19.25,73684.0,4.69,3.33,3.23,0,*78
1535302956.49,31509,19.25,73680.8,4.69,3.19,3.03,0,*73
1535302957.74,31510,19.25,73680.8,4.67,3.19,3.03,0,*75
1535302958.95,31511,19.19,73680.0,4.69,3.29,3.15,0,*7E
1535302960.18,31512,19.25,73686.0,4.67,3.29,3.15,0,*73
1535302961.43,31513,19.25,73684.5,4.67,3.53,3.37,0,*7F
1535302962.63,31514,19.25,73686.5,4.69,3.63,3.41,0,*74
1535302963.87,31515,19.25,73686.5,4.69,3.67,3.45,0,*75
1535302965.07,31516,19.19,73682.0,4.69,3.55,3.33,0,*76
1535302966.3,31517,19.19,73680.8,4.67,3.41,3.25,0,*7B
1535302967.5,31518,19.19,73682.3,4.69,3.63,3.33,0,*7D
1535302968.71,31519,19.19,73682.8,4.69,3.63,3.41,0,*79
1535302969.94,31520,19.19,73680.3,4.67,3.41,3.25,0,*7F
1535302971.17,31521,19.19,73680.5,4.67,3.53,3.29,0,*71
1535302972.41,31522,19.19,73682.5,4.69,3.67,3.41,0,*75
1535302973.66,31523,19.19,73680.3,4.67,3.71,3.37,0,*7C
1535302974.9,31524,19.25,73682.8,4.69,3.67,3.41,0,*73
1535302976.16,31525,19.25,73684.3,4.67,3.71,3.49,0,*73
1535302977.39,31526,19.25,73684.8,4.67,3.63,3.49,0,*73
1535302978.65,31527,19.25,73686.0,4.67,3.75,3.49,0,*75
1535302979.88,31528,19.25,73686.8,4.69,3.75,3.45,0,*78
1535302981.12,31529,19.25,73682.5,4.69,3.75,3.45,0,*79
1535302982.34,31530,19.25,73686.0,4.67,3.63,3.37,0,*7D
1535302983.58,31531,19.25,73684.3,4.69,3.67,3.33,0,*72
1535302984.78,31532,19.25,73684.3,4.69,3.55,3.33,0,*70
1535302986.0,31533,19.19,73682.5,4.67,3.49,3.29,0,*79
1535302987.23,31534,19.19,73680.3,4.67,3.59,3.37,0,*70
1535302988.47,31535,19.25,73684.3,4.69,3.67,3.41,0,*73
1535302989.7,31536,19.25,73684.0,4.69,3.67,3.45,0,*74
1535302990.94,31537,19.25,73684.0,4.69,3.71,3.45,0,*72
1535302992.17,31538,19.25,73686.5,4.69,3.75,3.45,0,*79
1535302993.4,31539,19.19,73682.5,4.69,3.79,3.53,0,*73
1535302994.59,31540,19.25,73686.3,4.69,3.85,3.53,0,*7E
1535302995.86,31541,19.19,73684.3,4.67,3.75,3.41,0,*7D
1535302997.09,31542,19.25,73684.5,4.69,3.67,3.45,0,*77
1535302998.33,31543,19.19,73684.0,4.69,3.67,3.33,0,*77
1535302999.53,31544,19.25,73686.8,4.69,3.63,3.33,0,*74
1535303000.74,31545,19.25,73684.8,4.69,3.63,3.41,0,*70
1535303001.94,31546,19.25,73686.0,4.69,3.55,3.33,0,*73
1535303003.16,31547,19.25,73686.3,4.67,3.49,3.25,0,*76
1535303004.37,31548,19.19,73682.5,4.69,3.45,3.29,0,*77
1535303005.59,31549,19.25,73686.5,4.69,3.45,3.23,0,*7C
1535303006.82,31550,19.25,73684.3,4.67,3.41,3.25,0,*78
1535303008.02,31551,19.19,73682.5,4.69,3.53,3.29,0,*78
1535303009.22,31552,19.25,73682.8,4.69,3.53,3.29,0,*7B
1535303010.42,31553,19.25,73686.0,4.69,3.53,3.29,0,*7A
1535303011.59,31554,19.25,73686.3,4.69,3.55,3.29,0,*7B
1535303012.79,31555,19.25,73684.5,4.69,3.63,3.41,0,*71
1535303014.03,31556,19.19,73680.5,4.69,3.67,3.41,0,*76
1535303015.27,31557,19.19,73682.8,4.69,3.67,3.41,0,*77
1535303016.47,31558,19.25,73684.0,4.69,3.55,3.33,0,*7C
1535303017.67,31559,19.19,73682.0,4.69,3.55,3.33,0,*7D
1535303018.87,31560,19.25,73686.0,4.69,3.55,3.41,0,*72
1535303020.08,31561,19.19,73684.5,4.69,3.55,3.41,0,*73
1535303021.28,31562,19.19,73684.8,4.69,3.55,3.41,0,*70
1535303022.48,31563,19.25,73684.5,4.69,3.55,3.41,0,*71
1535303023.71,31564,19.25,73684.3,4.69,3.53,3.41,0,*70
1535303024.91,31565,19.25,73684.8,4.69,3.55,3.41,0,*77
1535303026.16,31566,19.19,73682.8,4.67,3.53,3.37,0,*7D
1535303027.37,31567,19.25,73686.0,4.69,3.55,3.41,0,*75
1535303028.61,31568,19.25,73684.3,4.67,3.53,3.37,0,*73
1535303029.82,31569,19.25,73684.5,4.69,3.63,3.41,0,*7E
1535303031.06,31570,19.25,73688.0,4.69,3.67,3.45,0,*76
1535303032.26,31571,19.19,73680.8,4.69,3.55,3.41,0,*72
1535303033.49,31572,19.19,73684.3,4.69,3.67,3.53,0,*73
1535303034.72,31573,19.25,73688.8,4.67,3.63,3.41,0,*7B
1535303035.92,31574,19.25,73686.3,4.69,3.55,3.45,0,*73
1535303037.13,31575,19.19,73682.3,4.69,3.63,3.41,0,*73
1535303038.33,31576,19.25,73686.8,4.69,3.63,3.41,0,*70
1535303039.56,31577,19.25,73686.0,4.67,3.59,3.37,0,*77
1535303040.76,31578,19.25,73686.8,4.69,3.63,3.45,0,*7A
1535303041.95,31579,19.19,73682.8,4.69,3.55,3.53,0,*79
1535303043.13,31580,19.19,73680.3,4.73,3.59,3.55,0,*7E
1535303044.32,31581,19.25,73686.5,4.69,3.63,3.53,0,*7B
1535303045.56,31582,19.25,73684.5,4.67,3.63,3.41,0,*75
1535303046.79,31583,19.25,73686.8,4.73,3.79,3.49,0,*72
1535303047.99,31584,19.25,73686.3,4.73,3.71,3.55,0,*70
1535303049.22,31585,19.19,73684.0,4.73,3.71,3.49,0,*7C
1535303050.45,31586,19.19,73682.8,4.69,3.67,3.41,0,*7B
1535303051.66,31587,19.25,73684.5,4.69,3.45,3.29,0,*74
1535303052.83,31588,19.25,73684.5,4.69,3.55,3.29,0,*7A
1535303054.03,31589,19.19,73680.0,4.69,3.53,3.29,0,*7D
1535303055.23,31590,19.25,73684.3,4.69,3.55,3.41,0,*7D
1535303056.44,31591,19.19,73682.8,4.69,3.63,3.41,0,*79
1535303057.64,31592,19.25,73684.8,4.73,3.59,3.45,0,*7C
1535303058.87,31593,19.19,73684.3,4.73,3.67,3.37,0,*75
1535303060.11,31594,19.25,73686.8,4.73,3.67,3.45,0,*77
1535303061.33,31595,19.19,73682.8,4.73,3.49,3.37,0,*7F
1535303062.55,31596,19.25,73684.5,4.73,3.49,3.37,0,*7C
1535303063.81,31597,19.19,73680.5,4.67,3.41,3.37,0,*70
1535303065.01,31598,19.25,73684.3,4.69,3.33,3.29,0,*7B
1535303066.24,31599,19.25,73684.5,4.69,3.45,3.33,0,*70
1535303067.43,31600,19.25,73686.8,4.69,3.63,3.53,0,*71
1535303068.67,31601,19.25,73686.8,4.69,3.75,3.45,0,*70
1535303069.87,31602,19.19,73680.3,4.73,3.71,3.55,0,*7D
1535303071.1,31603,19.19,73682.8,4.73,3.71,3.67,0,*7D
1535303072.3,31604,19.19,73682.3,4.69,3.79,3.63,0,*7D
1535303073.5,31605,19.19,73682.3,4.69,3.75,3.55,0,*75
1535303074.7,31606,19.25,73686.8,4.69,3.63,3.53,0,*77
1535303075.87,31607,19.25,73684.3,4.69,3.63,3.55,0,*70
1535303077.07,31608,19.25,73686.0,4.69,3.75,3.55,0,*78
1535303078.28,31609,19.19,73682.3,4.69,3.75,3.63,0,*7C
1535303079.51,31610,19.25,73686.3,4.69,3.79,3.75,0,*7F
1535303080.74,31611,19.25,73686.3,4.69,3.79,3.75,0,*7E
1535303081.94,31612,19.25,73682.8,4.73,3.79,3.59,0,*78
1535303083.14,31613,19.25,73686.0,4.73,3.71,3.59,0,*71
1535303084.37,31614,19.19,73686.0,4.73,3.79,3.67,0,*73
1535303085.57,31615,19.19,73686.0,4.73,3.81,3.71,0,*72
1535303086.78,31616,19.25,73686.5,4.73,3.89,3.71,0,*79
1535303087.98,31617,19.19,73686.0,4.73,3.89,3.79,0,*70
1535303089.19,31618,19.25,73684.8,4.73,3.89,3.71,0,*77
1535303090.39,31619,19.25,73684.0,4.73,3.81,3.79,0,*76
1535303091.6,31620,19.25,73684.8,4.73,3.89,3.71,0,*7C
1535303092.83,31621,19.25,73686.0,4.73,3.71,3.71,0,*7A
1535303094.05,31622,19.19,73682.5,4.73,3.49,3.49,0,*79
1535303095.25,31623,19.25,73686.3,4.73,3.67,3.59,0,*75
1535303096.46,31624,19.25,73686.3,4.73,3.67,3.59,0,*72
1535303097.69,31625,19.25,73688.0,4.73,3.67,3.67,0,*7E
1535303098.92,31626,19.25,73684.8,4.73,3.79,3.71,0,*75
1535303100.12,31627,19.19,73686.0,4.73,3.81,3.79,0,*7B
1535303101.3,31628,19.19,73686.0,4.73,3.81,3.89,0,*7B
1535303102.48,31629,19.19,73682.8,4.73,3.81,3.81,0,*72
1535303103.66,31630,19.19,73684.5,4.73,3.89,3.81,0,*72
1535303104.86,31631,19.25,73686.3,4.73,3.81,3.79,0,*7C
1535303106.04,31632,19.19,73682.8,4.73,3.89,3.89,0,*78
1535303107.23,31633,19.25,73686.0,4.73,3.89,3.93,0,*72
1535303108.41,31634,19.19,73682.0,4.73,3.93,3.89,0,*75
1535303109.59,31635,19.25,73684.3,4.73,3.89,3.89,0,*7F
1535303110.77,31636,19.25,73684.5,4.73,3.93,3.93,0,*7C
1535303111.98,31637,19.19,73686.3,4.73,3.93,4.01,0,*71
1535303113.2,31638,19.25,73686.0,4.73,3.79,3.79,0,*72
1535303114.4,31639,19.19,73684.3,4.73,3.81,3.79,0,*74
1535303115.59,31640,19.25,73686.3,4.73,3.89,3.89,0,*7D
1535303116.77,31641,19.25,73686.5,4.73,3.81,3.81,0,*7C
1535303117.94,31642,19.25,73688.5,4.73,3.59,3.55,0,*73
1535303119.14,31643,19.19,73682.5,4.73,3.55,3.49,0,*73
1535303120.37,31644,19.19,73682.8,4.73,3.67,3.79,0,*76
1535303121.55,31645,19.25,73684.5,4.73,3.81,3.81,0,*78
1535303122.77,31646,19.25,73684.3,4.73,4.01,4.01,0,*7B
1535303123.95,31647,19.25,73686.5,4.73,3.81,3.89,0,*72
1535303125.13,31648,19.25,73686.8,4.73,3.93,3.93,0,*75
1535303126.33,31649,19.19,73684.0,4.73,4.01,3.93,0,*78
1535303127.55,31650,19.19,73684.5,4.73,4.01,4.01,0,*7C
1535303128.78,31651,19.25,73684.3,4.73,4.01,4.01,0,*7D
1535303129.98,31652,19.25,73684.8,4.73,4.05,3.93,0,*76
1535303131.21,31653,19.25,73684.3,4.73,4.05,4.01,0,*7B
1535303132.44,31654,19.25,73686.3,4.73,4.05,4.01,0,*7C
1535303133.65,31655,19.19,73686.0,4.73,4.05,3.93,0,*71
1535303134.85,31656,19.19,73682.8,4.73,4.05,3.93,0,*72
1535303136.11,31657,19.19,73684.8,4.75,4.05,4.01,0,*79
1535303137.36,31658,19.25,73684.3,4.75,4.05,4.01,0,*76
1535303138.57,31659,19.25,73684.0,4.75,3.89,3.81,0,*7B
1535303139.8,31660,19.25,73688.3,4.75,3.81,3.71,0,*76
1535303140.99,31661,19.19,73684.3,4.77,3.89,3.81,0,*72
1535303142.2,31662,19.19,73684.0,4.75,3.89,3.81,0,*73
1535303143.4,31663,19.25,73684.3,4.77,3.97,3.85,0,*7B
1535303144.63,31664,19.19,73682.0,4.75,3.89,3.71,0,*7A
1535303145.86,31665,19.19,73686.8,4.75,4.01,3.93,0,*70
1535303147.09,31666,19.19,73684.8,4.75,3.81,3.71,0,*70
1535303148.29,31667,19.25,73684.5,4.75,3.81,3.81,0,*7E
1535303149.52,31668,19.19,73680.5,4.75,4.01,3.81,0,*7E
1535303150.73,31669,19.25,73686.3,4.75,3.93,3.89,0,*7B
1535303151.96,31670,19.25,73684.3,4.75,4.01,3.93,0,*74
1535303153.21,31671,19.25,73686.8,4.75,4.05,4.01,0,*7D
1535303154.44,31672,19.19,73686.0,4.75,4.01,3.89,0,*7D
1535303155.67,31673,19.25,73686.3,4.75,4.01,3.81,0,*74
1535303156.9,31674,19.25,73686.0,4.75,4.01,3.89,0,*7B
1535303158.15,31675,19.19,73682.3,4.75,4.01,4.01,0,*7D
1535303159.38,31676,19.19,73684.8,4.75,4.01,3.93,0,*72
1535303160.59,31677,19.19,73682.3,4.75,4.07,3.93,0,*75
1535303161.84,31678,19.19,73684.0,4.75,4.05,4.01,0,*74
1535303163.05,31679,19.19,73684.0,4.77,4.07,4.05,0,*71
1535303164.26,31680,19.19,73684.5,4.75,4.07,3.93,0,*7D
1535303165.47,31681,19.19,73682.3,4.77,4.07,4.05,0,*76
1535303166.73,31682,19.19,73684.0,4.75,4.05,4.01,0,*71
1535303167.98,31683,19.19,73686.8,4.75,4.05,4.01,0,*70
1535303169.24,31684,19.19,73682.3,4.75,4.05,4.01,0,*77
1535303170.44,31685,19.25,73684.5,4.77,4.11,3.97,0,*79
1535303171.69,31686,19.19,73680.0,4.75,4.05,4.01,0,*75
1535303172.9,31687,19.19,73686.8,4.77,4.11,3.97,0,*7B
1535303174.11,31688,19.19,73684.5,4.77,4.11,4.05,0,*78
1535303175.32,31689,19.19,73684.8,4.77,4.11,4.05,0,*79
1535303176.55,31690,19.19,73680.5,4.75,4.07,4.01,0,*70
1535303177.76,31691,19.19,73684.5,4.75,4.07,3.93,0,*7D
1535303178.97,31692,19.19,73686.3,4.77,4.11,4.05,0,*73
1535303180.17,31693,19.25,73686.0,4.77,4.11,4.05,0,*72
1535303181.36,31694,19.25,73684.3,4.77,4.11,4.07,0,*77
1535303182.57,31695,19.19,73682.8,4.77,4.11,4.05,0,*74
1535303183.77,31696,19.19,73684.5,4.77,4.11,3.97,0,*7B
1535303184.98,31697,19.19,73684.3,4.77,4.11,3.97,0,*7A
1535303186.19,31698,19.19,73686.3,4.77,4.07,4.05,0,*7E
1535303187.39,31699,19.19,73684.3,4.77,4.11,3.97,0,*74
1535303188.6,31700,19.25,73684.5,4.77,4.07,3.97,0,*72
1535303189.82,31701,19.19,73682.5,4.79,4.01,3.85,0,*78
1535303191.07,31702,19.19,73686.5,4.79,4.01,3.97,0,*78
1535303192.28,31703,19.19,73684.8,4.79,4.07,3.89,0,*70
1535303193.53,31704,19.19,73686.3,4.79,4.01,3.97,0,*7E
1535303194.73,31705,19.25,73686.3,4.77,3.97,3.81,0,*7E
1535303195.92,31706,19.19,73680.5,4.77,3.93,3.81,0,*79
1535303197.13,31707,19.25,73686.8,4.79,4.07,3.89,0,*74
1535303198.34,31708,19.19,73686.0,4.77,3.97,3.93,0,*70
1535303199.55,31709,19.25,73686.5,4.77,4.05,3.93,0,*7D
1535303200.75,31710,19.25,73686.3,4.77,3.97,3.85,0,*7E
1535303201.95,31711,19.25,73686.5,4.77,4.05,3.85,0,*73
1535303203.17,31712,19.19,73684.3,4.77,4.05,3.93,0,*77
1535303204.38,31713,19.19,73684.0,4.77,4.05,3.93,0,*76
1535303205.61,31714,19.19,73684.0,4.79,4.07,3.97,0,*79
1535303206.84,31715,19.25,73686.3,4.79,4.01,3.89,0,*71
1535303208.04,31716,19.19,73686.0,4.77,3.85,3.75,0,*74
1535303209.29,31717,19.19,73684.0,4.79,3.97,3.79,0,*74
1535303210.47,31718,19.19,73684.5,4.77,3.93,3.85,0,*72
1535303211.68,31719,19.19,73684.5,4.77,4.05,3.93,0,*7C
1535303212.88,31720,19.19,73682.5,4.77,3.97,3.85,0,*7D
1535303214.09,31721,19.19,73686.5,4.77,3.97,3.93,0,*7B
1535303215.3,31722,19.19,73682.5,4.77,4.05,3.93,0,*74
1535303216.53,31723,19.19,73686.5,4.77,4.05,3.97,0,*71
1535303217.76,31724,19.19,73684.3,4.77,4.05,3.97,0,*76
1535303218.97,31725,19.25,73684.3,4.77,4.07,4.05,0,*79
1535303220.18,31726,19.19,73682.3,4.77,4.07,3.97,0,*76
1535303221.39,31727,19.19,73684.5,4.79,4.07,3.89,0,*76
1535303222.62,31728,19.19,73682.8,4.79,4.07,3.97,0,*76
1535303223.83,31729,19.19,73680.3,4.79,4.07,3.89,0,*78
1535303225.06,31730,19.19,73684.8,4.79,4.07,3.97,0,*7F
1535303226.31,31731,19.19,73682.5,4.79,4.01,3.97,0,*78
1535303227.51,31732,19.25,73686.0,4.77,4.05,3.85,0,*72
1535303228.75,31733,19.25,73686.0,4.77,4.05,4.05,0,*7C
1535303229.98,31734,19.19,73682.0,4.77,4.05,3.97,0,*77
1535303231.18,31735,19.19,73680.3,4.77,3.97,3.85,0,*79
1535303232.36,31736,19.19,73682.8,4.77,3.85,3.81,0,*7D
1535303233.56,31737,19.19,73684.8,4.77,3.97,3.85,0,*7B
1535303234.76,31738,19.19,73684.5,4.77,3.97,3.85,0,*74
1535303235.97,31739,19.19,73686.8,4.77,4.05,3.85,0,*79
1535303237.18,31740,19.25,73688.0,4.75,3.93,3.81,0,*79
1535303238.39,31741,19.19,73686.5,4.77,4.05,3.93,0,*71
1535303239.6,31742,19.19,73684.3,4.77,4.05,3.93,0,*72
1535303240.81,31743,19.19,73686.0,4.77,4.05,3.93,0,*73
1535303241.99,31744,19.19,73686.0,4.77,3.93,3.85,0,*7B
1535303243.2,31745,19.19,73686.8,4.77,3.85,3.75,0,*72
1535303244.4,31746,19.19,73686.0,4.77,3.85,3.75,0,*71
1535303245.61,31747,19.19,73684.5,4.77,3.85,3.71,0,*74
1535303246.81,31748,19.19,73686.3,4.77,3.85,3.75,0,*7F
1535303248.0,31749,19.19,73686.0,4.77,3.93,3.81,0,*72
1535303249.2,31750,19.19,73680.3,4.77,4.05,3.85,0,*76
1535303250.41,31751,19.19,73682.0,4.77,4.05,3.85,0,*77
1535303251.64,31752,19.19,73682.5,4.75,3.93,3.71,0,*75
1535303252.85,31753,19.25,73688.3,4.77,3.63,3.49,0,*72
1535303254.05,31754,19.19,73682.5,4.77,3.71,3.59,0,*77
1535303255.26,31755,19.19,73682.3,4.77,3.71,3.59,0,*76
1535303256.46,31756,19.19,73682.3,4.77,3.75,3.63,0,*78
1535303257.67,31757,19.25,73688.0,4.77,3.85,3.71,0,*75
1535303258.9,31758,19.25,73684.3,4.75,3.81,3.67,0,*7B
1535303260.15,31759,19.19,73686.0,4.75,3.71,3.49,0,*79
1535303261.36,31760,19.19,73682.3,4.77,3.63,3.49,0,*72
1535303262.58,31761,19.19,73686.8,4.75,3.55,3.49,0,*74
1535303263.81,31762,19.19,73684.5,4.75,3.67,3.55,0,*7B
1535303265.04,31763,19.25,73686.3,4.75,3.79,3.59,0,*79
1535303266.25,31764,19.19,73684.3,4.77,3.75,3.59,0,*70
1535303267.48,31765,19.19,73682.3,4.75,3.79,3.59,0,*7F
1535303268.66,31766,19.19,73686.3,4.77,3.85,3.81,0,*78
1535303269.87,31767,19.19,73680.0,4.77,3.85,3.75,0,*72
1535303271.1,31768,19.19,73684.8,4.75,3.81,3.71,0,*7F
1535303272.35,31769,19.19,73686.3,4.75,3.71,3.67,0,*76
1535303273.58,31770,19.19,73684.3,4.75,3.71,3.59,0,*73
1535303274.81,31771,19.19,73686.0,4.75,3.59,3.45,0,*75
1535303276.06,31772,19.19,73682.0,4.75,3.49,3.37,0,*72
1535303277.29,31773,19.19,73684.3,4.75,3.59,3.45,0,*77
1535303278.49,31774,19.19,73686.5,4.75,3.59,3.55,0,*71
1535303279.71,31775,19.19,73684.0,4.75,3.59,3.37,0,*74
1535303280.94,31776,19.19,73684.5,4.73,3.45,3.33,0,*78
1535303282.16,31777,19.19,73686.3,4.73,3.19,3.07,0,*77
1535303283.39,31778,19.19,73684.0,4.73,3.37,3.33,0,*73
1535303284.59,31779,19.19,73682.8,4.73,3.55,3.37,0,*72
1535303285.79,31780,19.19,73686.8,4.73,3.55,3.45,0,*71
1535303286.99,31781,19.19,73686.5,4.73,3.55,3.45,0,*70
1535303288.21,31782,19.19,73684.8,4.73,3.37,3.33,0,*76
1535303289.44,31783,19.19,73686.8,4.73,3.45,3.33,0,*72
1535303290.64,31784,19.25,73686.3,4.73,3.55,3.45,0,*75
1535303291.88,31785,19.19,73686.8,4.73,3.67,3.49,0,*79
1535303293.08,31786,19.19,73682.5,4.69,3.75,3.55,0,*7F
1535303294.28,31787,19.19,73684.8,4.73,3.79,3.59,0,*75
1535303295.51,31788,19.19,73680.5,4.73,3.71,3.49,0,*73
1535303296.72,31789,19.19,73682.3,4.73,3.71,3.59,0,*73
1535303297.92,31790,19.19,73684.5,4.73,3.59,3.49,0,*70
1535303299.14,31791,19.19,73684.3,4.73,3.49,3.37,0,*79
1535303300.34,31792,19.19,73684.0,4.73,3.37,3.25,0,*70
1535303301.54,31793,19.19,73686.3,4.73,3.59,3.45,0,*7F
1535303302.74,31794,19.19,73686.8,4.73,3.71,3.55,0,*73
1535303303.95,31795,19.19,73686.3,4.73,3.79,3.59,0,*76
1535303305.15,31796,19.19,73684.5,4.73,3.67,3.55,0,*76
1535303306.35,31797,19.19,73684.8,4.69,3.75,3.55,0,*7F
1535303307.56,31798,19.19,73682.8,4.69,3.67,3.55,0,*73
1535303308.79,31799,19.19,73686.0,4.73,3.71,3.49,0,*73
1535303309.99,31800,19.19,73684.5,4.69,3.63,3.45,0,*78
1535303311.22,31801,19.19,73684.0,4.69,3.75,3.53,0,*79
1535303312.42,31802,19.19,73684.8,4.69,3.67,3.55,0,*7F
1535303313.65,31803,19.25,73686.5,4.69,3.67,3.53,0,*78
1535303314.85,31804,19.19,73682.8,4.69,3.79,3.63,0,*73
1535303316.08,31805,19.19,73682.8,4.73,3.79,3.67,0,*7D
1535303317.25,31806,19.19,73680.8,4.73,3.59,3.55,0,*7D
1535303318.45,31807,19.19,73686.8,4.69,3.63,3.53,0,*78
1535303319.68,31808,19.19,73686.3,4.69,3.67,3.45,0,*74
1535303320.91,31809,19.19,73682.5,4.69,3.41,3.23,0,*71
1535303322.14,31810,19.19,73684.5,4.67,3.15,2.99,0,*76
1535303323.36,31811,19.19,73682.5,4.69,3.33,3.23,0,*7D
1535303324.57,31812,19.19,73686.8,4.69,3.41,3.29,0,*71
1535303325.79,31813,19.19,73684.0,4.69,3.53,3.33,0,*78
1535303327.04,31814,19.19,73684.3,4.67,3.49,3.37,0,*7E
1535303328.28,31815,19.19,73686.3,4.67,3.59,3.41,0,*7F
1535303329.48,31816,19.25,73686.0,4.69,3.55,3.41,0,*7E
1535303330.71,31817,19.19,73684.3,4.67,3.63,3.41,0,*74